Location: *
(46.1006°N, 1.8394°E)
Time: 13:33:13
(UTC+00:00)

Cosmos 1959 Rocket - Pass Details

Date: 20 September 2019
Orbit: 947 x 997 km, 82.9° (Epoch: 22 October)

Event Time Altitude Azimuth Distance (km) Brightness Sun altitude
Rises 20:00:52 0° 350° (N) 3,633 8.0 -21.9°
Reaches altitude 10° 20:03:22 10° 350° (N) 2,686 7.3 -22.3°
Maximum altitude 20:09:30 81° 264° (W) 974 4.5 -23.2°
Enters shadow 20:13:17 25° 180° (S) 1,827 5.7 -23.8°
